Year,Month,Day,Hour,Minute,Value (Times are PST for temperature in C)
2012,09,25,00,00,4.50
2012,09,25,00,01,4.40
2012,09,25,00,02,4.40
2012,09,25,00,03,4.40
2012,09,25,00,04,4.40
2012,09,25,00,05,4.40
2012,09,25,00,06,4.40
2012,09,25,00,07,4.40
2012,09,25,00,08,4.40
2012,09,25,00,09,4.40
2012,09,25,00,10,4.30
2012,09,25,00,11,4.30
2012,09,25,00,12,4.30
2012,09,25,00,13,4.30
2012,09,25,00,14,4.30
2012,09,25,00,15,4.30
2012,09,25,00,16,4.20
2012,09,25,00,17,4.20
2012,09,25,00,18,4.20
2012,09,25,00,19,4.10
2012,09,25,00,20,4.10
2012,09,25,00,21,4.10
2012,09,25,00,22,4.00
2012,09,25,00,23,4.00
2012,09,25,00,24,4.00
2012,09,25,00,25,4.00
2012,09,25,00,26,3.90
2012,09,25,00,27,3.90
2012,09,25,00,28,3.90
2012,09,25,00,29,3.90
2012,09,25,00,30,3.90
2012,09,25,00,31,3.90
2012,09,25,00,32,3.90
2012,09,25,00,33,3.90
2012,09,25,00,34,3.80
2012,09,25,00,35,3.80
2012,09,25,00,36,3.80
2012,09,25,00,37,3.80
2012,09,25,00,38,3.80
2012,09,25,00,39,3.80
2012,09,25,00,40,3.80
2012,09,25,00,41,3.80
2012,09,25,00,42,3.70
2012,09,25,00,43,3.70
2012,09,25,00,44,3.70
2012,09,25,00,45,3.70
2012,09,25,00,46,3.70
2012,09,25,00,47,3.70
2012,09,25,00,48,3.70
2012,09,25,00,49,3.70
2012,09,25,00,50,3.70
2012,09,25,00,51,3.70
2012,09,25,00,52,3.70
2012,09,25,00,53,3.70
2012,09,25,00,54,3.70
2012,09,25,00,55,3.70
2012,09,25,00,56,3.60
2012,09,25,00,57,3.60
2012,09,25,00,58,3.60
2012,09,25,00,59,3.60
2012,09,25,01,00,3.50
2012,09,25,01,01,3.50
2012,09,25,01,02,3.50
2012,09,25,01,03,3.40
2012,09,25,01,04,3.40
2012,09,25,01,05,3.40
2012,09,25,01,06,3.40
2012,09,25,01,07,3.40
2012,09,25,01,08,3.30
2012,09,25,01,09,3.30
2012,09,25,01,10,3.30
2012,09,25,01,11,3.30
2012,09,25,01,12,3.20
2012,09,25,01,13,3.20
2012,09,25,01,14,3.20
2012,09,25,01,15,3.20
2012,09,25,01,16,3.20
2012,09,25,01,17,3.20
2012,09,25,01,18,3.20
2012,09,25,01,19,3.20
2012,09,25,01,20,3.10
2012,09,25,01,21,3.10
2012,09,25,01,22,3.10
2012,09,25,01,23,3.10
2012,09,25,01,24,3.10
2012,09,25,01,25,3.10
2012,09,25,01,26,3.10
2012,09,25,01,27,3.10
2012,09,25,01,28,3.10
2012,09,25,01,29,3.00
2012,09,25,01,30,3.00
2012,09,25,01,31,3.00
2012,09,25,01,32,3.00
2012,09,25,01,33,3.00
2012,09,25,01,34,2.90
2012,09,25,01,35,2.90
2012,09,25,01,36,2.90
2012,09,25,01,37,2.80
2012,09,25,01,38,2.80
2012,09,25,01,39,2.80
2012,09,25,01,40,2.70
2012,09,25,01,41,2.70
2012,09,25,01,42,2.70
2012,09,25,01,43,2.70
2012,09,25,01,44,2.60
2012,09,25,01,45,2.60
2012,09,25,01,46,2.60
2012,09,25,01,47,2.60
2012,09,25,01,48,2.60
2012,09,25,01,49,2.60
2012,09,25,01,50,2.50
2012,09,25,01,51,2.50
2012,09,25,01,52,2.50
2012,09,25,01,53,2.50
2012,09,25,01,54,2.50
2012,09,25,01,55,2.40
2012,09,25,01,56,2.40
2012,09,25,01,57,2.40
2012,09,25,01,58,2.40
2012,09,25,01,59,2.40
2012,09,25,02,00,2.40
2012,09,25,02,01,2.30
2012,09,25,02,02,2.30
2012,09,25,02,03,2.30
2012,09,25,02,04,2.30
2012,09,25,02,05,2.30
2012,09,25,02,06,2.30
2012,09,25,02,07,2.30
2012,09,25,02,08,2.30
2012,09,25,02,09,2.30
2012,09,25,02,10,2.30
2012,09,25,02,11,2.30
2012,09,25,02,12,2.30
2012,09,25,02,13,2.30
2012,09,25,02,14,2.30
2012,09,25,02,15,2.30
2012,09,25,02,16,2.20
2012,09,25,02,17,2.20
2012,09,25,02,18,2.20
2012,09,25,02,19,2.20
2012,09,25,02,20,2.20
2012,09,25,02,21,2.20
2012,09,25,02,22,2.20
2012,09,25,02,23,2.10
2012,09,25,02,24,2.10
2012,09,25,02,25,2.10
2012,09,25,02,26,2.10
2012,09,25,02,27,2.10
2012,09,25,02,28,2.00
2012,09,25,02,29,2.00
2012,09,25,02,30,2.00
2012,09,25,02,31,2.00
2012,09,25,02,32,1.90
2012,09,25,02,33,1.90
2012,09,25,02,34,1.90
2012,09,25,02,35,1.90
2012,09,25,02,36,1.90
2012,09,25,02,37,1.90
2012,09,25,02,38,1.90
2012,09,25,02,39,1.90
2012,09,25,02,40,1.90
2012,09,25,02,41,1.80
2012,09,25,02,42,1.80
2012,09,25,02,43,1.80
2012,09,25,02,44,1.80
2012,09,25,02,45,1.80
2012,09,25,02,46,1.80
2012,09,25,02,47,1.70
2012,09,25,02,48,1.70
2012,09,25,02,49,1.70
2012,09,25,02,50,1.70
2012,09,25,02,51,1.70
2012,09,25,02,52,1.70
2012,09,25,02,53,1.70
2012,09,25,02,54,1.70
2012,09,25,02,55,1.70
2012,09,25,02,56,1.70
2012,09,25,02,57,1.70
2012,09,25,02,58,1.70
2012,09,25,02,59,1.60
2012,09,25,03,00,1.60
2012,09,25,03,01,1.60
2012,09,25,03,02,1.60
2012,09,25,03,03,1.60
2012,09,25,03,04,1.60
2012,09,25,03,05,1.60
2012,09,25,03,06,1.60
2012,09,25,03,07,1.60
2012,09,25,03,08,1.60
2012,09,25,03,09,1.60
2012,09,25,03,10,1.60
2012,09,25,03,11,1.60
2012,09,25,03,12,1.60
2012,09,25,03,13,1.60
2012,09,25,03,14,1.60
2012,09,25,03,15,1.60
2012,09,25,03,16,1.60
2012,09,25,03,17,1.70
2012,09,25,03,18,1.70
2012,09,25,03,19,1.70
2012,09,25,03,20,1.70
2012,09,25,03,21,1.60
2012,09,25,03,22,1.60
2012,09,25,03,23,1.60
2012,09,25,03,24,1.60
2012,09,25,03,25,1.60
2012,09,25,03,26,1.50
2012,09,25,03,27,1.50
2012,09,25,03,28,1.50
2012,09,25,03,29,1.50
2012,09,25,03,30,1.50
2012,09,25,03,31,1.50
2012,09,25,03,32,1.50
2012,09,25,03,33,1.40
2012,09,25,03,34,1.40
2012,09,25,03,35,1.40
2012,09,25,03,36,1.40
2012,09,25,03,37,1.30
2012,09,25,03,38,1.30
2012,09,25,03,39,1.30
2012,09,25,03,40,1.30
2012,09,25,03,41,1.20
2012,09,25,03,42,1.20
2012,09,25,03,43,1.20
2012,09,25,03,44,1.20
2012,09,25,03,45,1.20
2012,09,25,03,46,1.20
2012,09,25,03,47,1.20
2012,09,25,03,48,1.20
2012,09,25,03,49,1.20
2012,09,25,03,50,1.20
2012,09,25,03,51,1.20
2012,09,25,03,52,1.20
2012,09,25,03,53,1.20
2012,09,25,03,54,1.20
2012,09,25,03,55,1.20
2012,09,25,03,56,1.20
2012,09,25,03,57,1.20
2012,09,25,03,58,1.20
2012,09,25,03,59,1.20
2012,09,25,04,00,1.20
2012,09,25,04,01,1.20
2012,09,25,04,02,1.20
2012,09,25,04,03,1.20
2012,09,25,04,04,1.20
2012,09,25,04,05,1.20
2012,09,25,04,06,1.20
2012,09,25,04,07,1.20
2012,09,25,04,08,1.20
2012,09,25,04,09,1.20
2012,09,25,04,10,1.20
2012,09,25,04,11,1.20
2012,09,25,04,12,1.20
2012,09,25,04,13,1.20
2012,09,25,04,14,1.20
2012,09,25,04,15,1.20
2012,09,25,04,16,1.30
2012,09,25,04,17,1.30
2012,09,25,04,18,1.30
2012,09,25,04,19,1.20
2012,09,25,04,20,1.20
2012,09,25,04,21,1.20
2012,09,25,04,22,1.20
2012,09,25,04,23,1.10
2012,09,25,04,24,1.10
2012,09,25,04,25,1.10
2012,09,25,04,26,1.00
2012,09,25,04,27,1.00
2012,09,25,04,28,1.00
2012,09,25,04,29,0.90
2012,09,25,04,30,0.90
2012,09,25,04,31,0.90
2012,09,25,04,32,0.80
2012,09,25,04,33,0.80
2012,09,25,04,34,0.80
2012,09,25,04,35,0.80
2012,09,25,04,36,0.80
2012,09,25,04,37,0.80
2012,09,25,04,38,0.70
2012,09,25,04,39,0.70
2012,09,25,04,40,0.70
2012,09,25,04,41,0.70
2012,09,25,04,42,0.70
2012,09,25,04,43,0.70
2012,09,25,04,44,0.60
2012,09,25,04,45,0.60
2012,09,25,04,46,0.60
2012,09,25,04,47,0.60
2012,09,25,04,48,0.60
2012,09,25,04,49,0.70
2012,09,25,04,50,0.70
2012,09,25,04,51,0.70
2012,09,25,04,52,0.70
2012,09,25,04,53,0.70
2012,09,25,04,54,0.80
2012,09,25,04,55,0.80
2012,09,25,04,56,0.80
2012,09,25,04,57,0.80
2012,09,25,04,58,0.80
2012,09,25,04,59,0.80
2012,09,25,05,00,0.80
2012,09,25,05,01,0.80
2012,09,25,05,02,0.80
2012,09,25,05,03,0.80
2012,09,25,05,04,0.80
2012,09,25,05,05,0.80
2012,09,25,05,06,0.80
2012,09,25,05,07,0.80
2012,09,25,05,08,0.80
2012,09,25,05,09,0.80
2012,09,25,05,10,0.80
2012,09,25,05,11,0.80
2012,09,25,05,12,0.80
2012,09,25,05,13,0.80
2012,09,25,05,14,0.80
2012,09,25,05,15,0.80
2012,09,25,05,16,0.90
2012,09,25,05,17,0.90
2012,09,25,05,18,0.90
2012,09,25,05,19,0.90
2012,09,25,05,20,0.90
2012,09,25,05,21,0.90
2012,09,25,05,22,0.90
2012,09,25,05,23,0.90
2012,09,25,05,24,0.90
2012,09,25,05,25,0.90
2012,09,25,05,26,0.90
2012,09,25,05,27,0.90
2012,09,25,05,28,0.90
2012,09,25,05,29,0.90
2012,09,25,05,30,0.90
2012,09,25,05,31,0.90
2012,09,25,05,32,0.90
2012,09,25,05,33,0.90
2012,09,25,05,34,0.90
2012,09,25,05,35,0.90
2012,09,25,05,36,0.90
2012,09,25,05,37,0.90
2012,09,25,05,38,0.90
2012,09,25,05,39,0.90
2012,09,25,05,40,0.90
2012,09,25,05,41,0.90
2012,09,25,05,42,0.90
2012,09,25,05,43,0.90
2012,09,25,05,44,0.90
2012,09,25,05,45,0.90
2012,09,25,05,46,0.90
2012,09,25,05,47,1.00
2012,09,25,05,48,1.00
2012,09,25,05,49,1.00
2012,09,25,05,50,1.00
2012,09,25,05,51,1.00
2012,09,25,05,52,1.10
2012,09,25,05,53,1.10
2012,09,25,05,54,1.10
2012,09,25,05,55,1.10
2012,09,25,05,56,1.10
2012,09,25,05,57,1.10
2012,09,25,05,58,1.10
2012,09,25,05,59,1.10
2012,09,25,06,00,1.10
2012,09,25,06,01,1.10
2012,09,25,06,02,1.10
2012,09,25,06,03,1.10
2012,09,25,06,04,1.10
2012,09,25,06,05,1.10
2012,09,25,06,06,1.10
2012,09,25,06,07,1.10
2012,09,25,06,08,1.10
2012,09,25,06,09,1.20
2012,09,25,06,10,1.20
2012,09,25,06,11,1.20
2012,09,25,06,12,1.20
2012,09,25,06,13,1.30
2012,09,25,06,14,1.30
2012,09,25,06,15,1.30
2012,09,25,06,16,1.30
2012,09,25,06,17,1.30
2012,09,25,06,18,1.30
2012,09,25,06,19,1.30
2012,09,25,06,20,1.30
2012,09,25,06,21,1.30
2012,09,25,06,22,1.30
2012,09,25,06,23,1.30
2012,09,25,06,24,1.30
2012,09,25,06,25,1.30
2012,09,25,06,26,1.30
2012,09,25,06,27,1.20
2012,09,25,06,28,1.20
2012,09,25,06,29,1.20
2012,09,25,06,30,1.20
2012,09,25,06,31,1.10
2012,09,25,06,32,1.10
2012,09,25,06,33,1.10
2012,09,25,06,34,1.00
2012,09,25,06,35,1.00
2012,09,25,06,36,1.00
2012,09,25,06,37,0.90
2012,09,25,06,38,0.90
2012,09,25,06,39,0.90
2012,09,25,06,40,0.90
2012,09,25,06,41,0.90
2012,09,25,06,42,0.90
2012,09,25,06,43,0.90
2012,09,25,06,44,0.80
2012,09,25,06,45,0.80
2012,09,25,06,46,0.80
2012,09,25,06,47,0.80
2012,09,25,06,48,0.80
2012,09,25,06,49,0.80
2012,09,25,06,50,0.80
2012,09,25,06,51,0.80
2012,09,25,06,52,0.80
2012,09,25,06,53,0.80
2012,09,25,06,54,0.80
2012,09,25,06,55,0.80
2012,09,25,06,56,0.80
2012,09,25,06,57,0.80
2012,09,25,06,58,0.80
2012,09,25,06,59,0.80
2012,09,25,07,00,0.80
2012,09,25,07,01,0.80
2012,09,25,07,02,0.80
2012,09,25,07,03,0.80
2012,09,25,07,04,0.80
2012,09,25,07,05,0.80
2012,09,25,07,06,0.80
2012,09,25,07,07,0.80
2012,09,25,07,08,0.80
2012,09,25,07,09,0.80
2012,09,25,07,10,0.80
2012,09,25,07,11,0.80
2012,09,25,07,12,0.80
2012,09,25,07,13,0.80
2012,09,25,07,14,0.80
2012,09,25,07,15,0.80
2012,09,25,07,16,0.80
2012,09,25,07,17,0.70
2012,09,25,07,18,0.70
2012,09,25,07,19,0.70
2012,09,25,07,20,0.70
2012,09,25,07,21,0.70
2012,09,25,07,22,0.70
2012,09,25,07,23,0.70
2012,09,25,07,24,0.70
2012,09,25,07,25,0.70
2012,09,25,07,26,0.70
2012,09,25,07,27,0.70
2012,09,25,07,28,0.60
2012,09,25,07,29,0.60
2012,09,25,07,30,0.60
2012,09,25,07,31,0.70
2012,09,25,07,32,0.70
2012,09,25,07,33,0.70
2012,09,25,07,34,0.60
2012,09,25,07,35,0.60
2012,09,25,07,36,0.60
2012,09,25,07,37,0.60
2012,09,25,07,38,0.60
2012,09,25,07,39,0.60
2012,09,25,07,40,0.60
2012,09,25,07,41,0.60
2012,09,25,07,42,0.60
2012,09,25,07,43,0.60
2012,09,25,07,44,0.60
2012,09,25,07,45,0.60
2012,09,25,07,46,0.60
2012,09,25,07,47,0.60
2012,09,25,07,48,0.60
2012,09,25,07,49,0.50
2012,09,25,07,50,0.50
2012,09,25,07,51,0.50
2012,09,25,07,52,0.50
2012,09,25,07,53,0.50
2012,09,25,07,54,0.50
2012,09,25,07,55,0.50
2012,09,25,07,56,0.60
2012,09,25,07,57,0.60
2012,09,25,07,58,0.60
2012,09,25,07,59,0.60
2012,09,25,08,00,0.60
2012,09,25,08,01,0.60
2012,09,25,08,02,0.60
2012,09,25,08,03,0.70
2012,09,25,08,04,0.60
2012,09,25,08,05,0.70
2012,09,25,08,06,0.60
2012,09,25,08,07,0.60
2012,09,25,08,08,0.60
2012,09,25,08,09,0.60
2012,09,25,08,10,0.60
2012,09,25,08,11,0.60
2012,09,25,08,12,0.60
2012,09,25,08,13,0.60
2012,09,25,08,14,0.60
2012,09,25,08,15,0.60
2012,09,25,08,16,0.60
2012,09,25,08,17,0.60
2012,09,25,08,18,0.60
2012,09,25,08,19,0.50
2012,09,25,08,20,0.50
2012,09,25,08,21,0.50
2012,09,25,08,22,0.50
2012,09,25,08,23,0.50
2012,09,25,08,24,0.50
2012,09,25,08,25,0.50
2012,09,25,08,26,0.50
2012,09,25,08,27,0.50
2012,09,25,08,28,0.60
2012,09,25,08,29,0.60
2012,09,25,08,30,0.60
2012,09,25,08,31,0.60
2012,09,25,08,32,0.60
2012,09,25,08,33,0.60
2012,09,25,08,34,0.60
2012,09,25,08,35,0.60
2012,09,25,08,36,0.60
2012,09,25,08,37,0.60
2012,09,25,08,38,0.60
2012,09,25,08,39,0.60
2012,09,25,08,40,0.60
2012,09,25,08,41,0.60
2012,09,25,08,42,0.60
2012,09,25,08,43,0.60
2012,09,25,08,44,0.70
2012,09,25,08,45,0.70
2012,09,25,08,46,0.70
2012,09,25,08,47,0.70
2012,09,25,08,48,0.70
2012,09,25,08,49,0.70
2012,09,25,08,50,0.70
2012,09,25,08,51,0.70
2012,09,25,08,52,0.70
2012,09,25,08,53,0.70
2012,09,25,08,54,0.60
2012,09,25,08,55,0.60
2012,09,25,08,56,0.60
2012,09,25,08,57,0.60
2012,09,25,08,58,0.60
2012,09,25,08,59,0.60
2012,09,25,09,00,0.60
2012,09,25,09,01,0.60
2012,09,25,09,02,0.60
2012,09,25,09,03,0.60
2012,09,25,09,04,0.50
2012,09,25,09,05,0.50
2012,09,25,09,06,0.50
2012,09,25,09,07,0.50
2012,09,25,09,08,0.50
2012,09,25,09,09,0.50
2012,09,25,09,10,0.50
2012,09,25,09,11,0.50
2012,09,25,09,12,0.50
2012,09,25,09,13,0.50
2012,09,25,09,14,0.50
2012,09,25,09,15,0.50
2012,09,25,09,16,0.50
2012,09,25,09,17,0.50
2012,09,25,09,18,0.60
2012,09,25,09,19,0.50
2012,09,25,09,20,0.50
2012,09,25,09,21,0.60
2012,09,25,09,22,0.60
2012,09,25,09,23,0.60
2012,09,25,09,24,0.50
2012,09,25,09,25,0.50
2012,09,25,09,26,0.50
2012,09,25,09,27,0.50
2012,09,25,09,28,0.50
2012,09,25,09,29,0.50
2012,09,25,09,30,0.50
2012,09,25,09,31,0.50
2012,09,25,09,32,0.50
2012,09,25,09,33,0.40
2012,09,25,09,34,0.40
2012,09,25,09,35,0.40
2012,09,25,09,36,0.40
2012,09,25,09,37,0.40
2012,09,25,09,38,0.40
2012,09,25,09,39,0.40
2012,09,25,09,40,0.40
2012,09,25,09,41,0.40
2012,09,25,09,42,0.40
2012,09,25,09,43,0.40
2012,09,25,09,44,0.40
2012,09,25,09,45,0.40
2012,09,25,09,46,0.40
2012,09,25,09,47,0.40
2012,09,25,09,48,0.40
2012,09,25,09,49,0.40
2012,09,25,09,50,0.40
2012,09,25,09,51,0.50
2012,09,25,09,52,0.50
2012,09,25,09,53,0.50
2012,09,25,09,54,0.50
2012,09,25,09,55,0.50
2012,09,25,09,56,0.50
2012,09,25,09,57,0.50
2012,09,25,09,58,0.50
2012,09,25,09,59,0.50
2012,09,25,10,00,0.50
2012,09,25,10,01,0.50
2012,09,25,10,02,0.50
2012,09,25,10,03,0.50
2012,09,25,10,04,0.50
2012,09,25,10,05,0.40
2012,09,25,10,06,0.40
2012,09,25,10,07,0.40
2012,09,25,10,08,0.40
2012,09,25,10,09,0.40
2012,09,25,10,10,0.40
2012,09,25,10,11,0.40
2012,09,25,10,12,0.40
2012,09,25,10,13,0.40
2012,09,25,10,14,0.40
2012,09,25,10,15,0.40
2012,09,25,10,16,0.40
2012,09,25,10,17,0.40
2012,09,25,10,18,0.30
2012,09,25,10,19,0.30
2012,09,25,10,20,0.30
2012,09,25,10,21,0.30
2012,09,25,10,22,0.30
2012,09,25,10,23,0.30
2012,09,25,10,24,0.30
2012,09,25,10,25,0.30
2012,09,25,10,26,0.30
2012,09,25,10,27,0.40
2012,09,25,10,28,0.40
2012,09,25,10,29,0.40
2012,09,25,10,30,0.40
2012,09,25,10,31,0.40
2012,09,25,10,32,0.40
2012,09,25,10,33,0.40
2012,09,25,10,34,0.40
2012,09,25,10,35,0.40
2012,09,25,10,36,0.40
2012,09,25,10,37,0.40
2012,09,25,10,38,0.40
2012,09,25,10,39,0.40
2012,09,25,10,40,0.50
2012,09,25,10,41,0.50
2012,09,25,10,42,0.50
2012,09,25,10,43,0.50
2012,09,25,10,44,0.50
2012,09,25,10,45,0.60
2012,09,25,10,46,0.60
2012,09,25,10,47,0.60
2012,09,25,10,48,0.60
2012,09,25,10,49,0.60
2012,09,25,10,50,0.70
2012,09,25,10,51,0.70
2012,09,25,10,52,0.80
2012,09,25,10,53,0.80
2012,09,25,10,54,0.90
2012,09,25,10,55,1.00
2012,09,25,10,56,1.00
2012,09,25,10,57,1.10
2012,09,25,10,58,1.20
2012,09,25,10,59,1.20
2012,09,25,11,00,1.20
2012,09,25,11,01,1.30
2012,09,25,11,02,1.30
2012,09,25,11,03,1.40
2012,09,25,11,04,1.40
2012,09,25,11,05,1.40
2012,09,25,11,06,1.50
2012,09,25,11,07,1.50
2012,09,25,11,08,1.60
2012,09,25,11,09,1.60
2012,09,25,11,10,1.70
2012,09,25,11,11,1.70
2012,09,25,11,12,1.80
2012,09,25,11,13,1.80
2012,09,25,11,14,1.90
2012,09,25,11,15,1.90
2012,09,25,11,16,2.00
2012,09,25,11,17,2.10
2012,09,25,11,18,2.20
2012,09,25,11,19,2.20
2012,09,25,11,20,2.30
2012,09,25,11,21,2.40
2012,09,25,11,22,2.50
2012,09,25,11,23,2.60
2012,09,25,11,24,2.60
2012,09,25,11,25,2.70
2012,09,25,11,26,2.80
2012,09,25,11,27,2.80
2012,09,25,11,28,2.90
2012,09,25,11,29,2.90
2012,09,25,11,30,3.00
2012,09,25,11,31,3.10
2012,09,25,11,32,3.20
2012,09,25,11,33,3.20
2012,09,25,11,34,3.30
2012,09,25,11,35,3.30
2012,09,25,11,36,3.40
2012,09,25,11,37,3.40
2012,09,25,11,38,3.50
2012,09,25,11,39,3.50
2012,09,25,11,40,3.60
2012,09,25,11,41,3.60
2012,09,25,11,42,3.70
2012,09,25,11,43,3.70
2012,09,25,11,44,3.80
2012,09,25,11,45,3.80
2012,09,25,11,46,3.90
2012,09,25,11,47,3.90
2012,09,25,11,48,4.00
2012,09,25,11,49,4.10
2012,09,25,11,50,4.20
2012,09,25,11,51,4.20
2012,09,25,11,52,4.30
2012,09,25,11,53,4.40
2012,09,25,11,54,4.50
2012,09,25,11,55,4.50
2012,09,25,11,56,4.60
2012,09,25,11,57,4.70
2012,09,25,11,58,4.70
2012,09,25,11,59,4.80
2012,09,25,12,00,4.90
2012,09,25,12,01,5.00
2012,09,25,12,02,5.00
2012,09,25,12,03,5.10
2012,09,25,12,04,5.20
2012,09,25,12,05,5.30
2012,09,25,12,06,5.30
2012,09,25,12,07,5.40
2012,09,25,12,08,5.40
2012,09,25,12,09,5.50
2012,09,25,12,10,5.60
2012,09,25,12,11,5.60
2012,09,25,12,12,5.70
2012,09,25,12,13,5.70
2012,09,25,12,14,5.80
2012,09,25,12,15,5.80
2012,09,25,12,16,5.90
2012,09,25,12,17,6.00
2012,09,25,12,18,6.00
2012,09,25,12,19,6.10
2012,09,25,12,20,6.20
2012,09,25,12,21,6.20
2012,09,25,12,22,6.30
2012,09,25,12,23,6.40
2012,09,25,12,24,6.40
2012,09,25,12,25,6.50
2012,09,25,12,26,6.60
2012,09,25,12,27,6.60
2012,09,25,12,28,6.70
2012,09,25,12,29,6.80
2012,09,25,12,30,6.80
2012,09,25,12,31,6.90
2012,09,25,12,32,7.00
2012,09,25,12,33,7.10
2012,09,25,12,34,7.30
2012,09,25,12,35,7.30
2012,09,25,12,36,7.40
2012,09,25,12,37,7.50
2012,09,25,12,38,7.60
2012,09,25,12,39,7.60
2012,09,25,12,40,7.70
2012,09,25,12,41,7.80
2012,09,25,12,42,7.80
2012,09,25,12,43,7.80
2012,09,25,12,44,7.90
2012,09,25,12,45,7.90
2012,09,25,12,46,8.00
2012,09,25,12,47,8.10
2012,09,25,12,48,8.10
2012,09,25,12,49,8.20
2012,09,25,12,50,8.20
2012,09,25,12,51,8.30
2012,09,25,12,52,8.30
2012,09,25,12,53,8.40
2012,09,25,12,54,8.40
2012,09,25,12,55,8.50
2012,09,25,12,56,8.60
2012,09,25,12,57,8.70
2012,09,25,12,58,8.80
2012,09,25,12,59,8.80
2012,09,25,13,00,8.90
2012,09,25,13,01,9.00
2012,09,25,13,02,9.00
2012,09,25,13,03,9.10
2012,09,25,13,04,9.10
2012,09,25,13,05,9.20
2012,09,25,13,06,9.30
2012,09,25,13,07,9.30
2012,09,25,13,08,9.40
2012,09,25,13,09,9.40
2012,09,25,13,10,9.40
2012,09,25,13,11,9.50
2012,09,25,13,12,9.50
2012,09,25,13,13,9.60
2012,09,25,13,14,9.60
2012,09,25,13,15,9.60
2012,09,25,13,16,9.70
2012,09,25,13,17,9.70
2012,09,25,13,18,9.70
2012,09,25,13,19,9.70
2012,09,25,13,20,9.80
2012,09,25,13,21,9.80
2012,09,25,13,22,9.90
2012,09,25,13,23,9.90
2012,09,25,13,24,10.00
2012,09,25,13,25,10.00
2012,09,25,13,26,10.00
2012,09,25,13,27,10.10
2012,09,25,13,28,10.10
2012,09,25,13,29,10.20
2012,09,25,13,30,10.30
2012,09,25,13,31,10.30
2012,09,25,13,32,10.40
2012,09,25,13,33,10.50
2012,09,25,13,34,10.60
2012,09,25,13,35,10.70
2012,09,25,13,36,10.80
2012,09,25,13,37,10.90
2012,09,25,13,38,11.00
2012,09,25,13,39,11.10
2012,09,25,13,40,11.20
2012,09,25,13,41,11.30
2012,09,25,13,42,11.40
2012,09,25,13,43,11.50
2012,09,25,13,44,11.50
2012,09,25,13,45,11.60
2012,09,25,13,46,11.70
2012,09,25,13,47,11.70
2012,09,25,13,48,11.70
2012,09,25,13,49,11.70
2012,09,25,13,50,11.70
2012,09,25,13,51,11.80
2012,09,25,13,52,11.80
2012,09,25,13,53,11.90
2012,09,25,13,54,11.90
2012,09,25,13,55,12.00
2012,09,25,13,56,12.10
2012,09,25,13,57,12.10
2012,09,25,13,58,12.10
2012,09,25,13,59,12.10
2012,09,25,14,00,12.10
2012,09,25,14,01,12.10
2012,09,25,14,02,12.10
2012,09,25,14,03,12.20
2012,09,25,14,04,12.20
2012,09,25,14,05,12.20
2012,09,25,14,06,12.20
2012,09,25,14,07,12.30
2012,09,25,14,08,12.30
2012,09,25,14,09,12.40
2012,09,25,14,10,12.40
2012,09,25,14,11,12.40
2012,09,25,14,12,12.40
2012,09,25,14,13,12.50
2012,09,25,14,14,12.50
2012,09,25,14,15,12.50
2012,09,25,14,16,12.50
2012,09,25,14,17,12.50
2012,09,25,14,18,12.60
2012,09,25,14,19,12.60
2012,09,25,14,20,12.60
2012,09,25,14,21,12.60
2012,09,25,14,22,12.60
2012,09,25,14,23,12.60
2012,09,25,14,24,12.60
2012,09,25,14,25,12.60
2012,09,25,14,26,12.60
2012,09,25,14,27,12.70
2012,09,25,14,28,12.70
2012,09,25,14,29,12.70
2012,09,25,14,30,12.70
2012,09,25,14,31,12.80
2012,09,25,14,32,12.80
2012,09,25,14,33,12.70
2012,09,25,14,34,12.70
2012,09,25,14,35,12.70
2012,09,25,14,36,12.70
2012,09,25,14,37,12.70
2012,09,25,14,38,12.80
2012,09,25,14,39,12.80
2012,09,25,14,40,12.80
2012,09,25,14,41,12.70
2012,09,25,14,42,12.70
2012,09,25,14,43,12.70
2012,09,25,14,44,12.80
2012,09,25,14,45,12.80
2012,09,25,14,46,12.80
2012,09,25,14,47,12.80
2012,09,25,14,48,12.70
2012,09,25,14,49,12.70
2012,09,25,14,50,12.70
2012,09,25,14,51,12.60
2012,09,25,14,52,12.60
2012,09,25,14,53,12.60
2012,09,25,14,54,12.60
2012,09,25,14,55,12.60
2012,09,25,14,56,12.60
2012,09,25,14,57,12.60
2012,09,25,14,58,12.60
2012,09,25,14,59,12.60
2012,09,25,15,00,12.60
2012,09,25,15,01,12.60
2012,09,25,15,02,12.50
2012,09,25,15,03,12.50
2012,09,25,15,04,12.50
2012,09,25,15,05,12.40
2012,09,25,15,06,12.40
2012,09,25,15,07,12.40
2012,09,25,15,08,12.40
2012,09,25,15,09,12.40
2012,09,25,15,10,12.40
2012,09,25,15,11,12.50
2012,09,25,15,12,12.50
2012,09,25,15,13,12.60
2012,09,25,15,14,12.60
2012,09,25,15,15,12.60
2012,09,25,15,16,12.70
2012,09,25,15,17,12.70
2012,09,25,15,18,12.70
2012,09,25,15,19,12.70
2012,09,25,15,20,12.70
2012,09,25,15,21,12.70
2012,09,25,15,22,12.70
2012,09,25,15,23,12.70
2012,09,25,15,24,12.60
2012,09,25,15,25,12.60
2012,09,25,15,26,12.60
2012,09,25,15,27,12.60
2012,09,25,15,28,12.60
2012,09,25,15,29,12.50
2012,09,25,15,30,12.50
2012,09,25,15,31,12.50
2012,09,25,15,32,12.50
2012,09,25,15,33,12.40
2012,09,25,15,34,12.40
2012,09,25,15,35,12.40
2012,09,25,15,36,12.40
2012,09,25,15,37,12.40
2012,09,25,15,38,12.50
2012,09,25,15,39,12.50
2012,09,25,15,40,12.50
2012,09,25,15,41,12.50
2012,09,25,15,42,12.50
2012,09,25,15,43,12.60
2012,09,25,15,44,12.60
2012,09,25,15,45,12.60
2012,09,25,15,46,12.60
2012,09,25,15,47,12.60
2012,09,25,15,48,12.60
2012,09,25,15,49,12.60
2012,09,25,15,50,12.70
2012,09,25,15,51,12.70
2012,09,25,15,52,12.70
2012,09,25,15,53,12.70
2012,09,25,15,54,12.80
2012,09,25,15,55,12.80
2012,09,25,15,56,12.80
2012,09,25,15,57,12.80
2012,09,25,15,58,12.80
2012,09,25,15,59,12.90
2012,09,25,16,00,12.90
2012,09,25,16,01,12.80
2012,09,25,16,02,12.80
2012,09,25,16,03,12.80
2012,09,25,16,04,12.80
2012,09,25,16,05,12.80
2012,09,25,16,06,12.80
2012,09,25,16,07,12.80
2012,09,25,16,08,12.80
2012,09,25,16,09,12.80
2012,09,25,16,10,12.90
2012,09,25,16,11,12.90
2012,09,25,16,12,12.90
2012,09,25,16,13,12.90
2012,09,25,16,14,12.90
2012,09,25,16,15,12.90
2012,09,25,16,16,12.90
2012,09,25,16,17,12.90
2012,09,25,16,18,12.90
2012,09,25,16,19,12.90
2012,09,25,16,20,12.90
2012,09,25,16,21,13.00
2012,09,25,16,22,13.00
2012,09,25,16,23,13.10
2012,09,25,16,24,13.10
2012,09,25,16,25,13.20
2012,09,25,16,26,13.20
2012,09,25,16,27,13.30
2012,09,25,16,28,13.30
2012,09,25,16,29,13.40
2012,09,25,16,30,13.40
2012,09,25,16,31,13.50
2012,09,25,16,32,13.60
2012,09,25,16,33,13.60
2012,09,25,16,34,13.70
2012,09,25,16,35,13.70
2012,09,25,16,36,13.80
2012,09,25,16,37,13.80
2012,09,25,16,38,13.80
2012,09,25,16,39,13.80
2012,09,25,16,40,13.80
2012,09,25,16,41,13.80
2012,09,25,16,42,13.80
2012,09,25,16,43,13.80
2012,09,25,16,44,13.70
2012,09,25,16,45,13.70
2012,09,25,16,46,13.70
2012,09,25,16,47,13.70
2012,09,25,16,48,13.60
2012,09,25,16,49,13.60
2012,09,25,16,50,13.60
2012,09,25,16,51,13.60
2012,09,25,16,52,13.50
2012,09,25,16,53,13.50
2012,09,25,16,54,13.40
2012,09,25,16,55,13.40
2012,09,25,16,56,13.40
2012,09,25,16,57,13.40
2012,09,25,16,58,13.40
2012,09,25,16,59,13.40
2012,09,25,17,00,13.40
2012,09,25,17,01,13.40
2012,09,25,17,02,13.40
2012,09,25,17,03,13.40
2012,09,25,17,04,13.40
2012,09,25,17,05,13.40
2012,09,25,17,06,13.40
2012,09,25,17,07,13.40
2012,09,25,17,08,13.40
2012,09,25,17,09,13.40
2012,09,25,17,10,13.40
2012,09,25,17,11,13.40
2012,09,25,17,12,13.50
2012,09,25,17,13,13.50
2012,09,25,17,14,13.60
2012,09,25,17,15,13.60
2012,09,25,17,16,13.60
2012,09,25,17,17,13.70
2012,09,25,17,18,13.70
2012,09,25,17,19,13.80
2012,09,25,17,20,13.80
2012,09,25,17,21,13.80
2012,09,25,17,22,13.90
2012,09,25,17,23,13.90
2012,09,25,17,24,13.90
2012,09,25,17,25,14.00
2012,09,25,17,26,14.00
2012,09,25,17,27,14.00
2012,09,25,17,28,14.00
2012,09,25,17,29,14.00
2012,09,25,17,30,14.10
2012,09,25,17,31,14.10
2012,09,25,17,32,14.10
2012,09,25,17,33,14.10
2012,09,25,17,34,14.10
2012,09,25,17,35,14.10
2012,09,25,17,36,14.10
2012,09,25,17,37,14.10
2012,09,25,17,38,14.00
2012,09,25,17,39,14.00
2012,09,25,17,40,14.00
2012,09,25,17,41,14.00
2012,09,25,17,42,14.00
2012,09,25,17,43,14.10
2012,09,25,17,44,14.00
2012,09,25,17,45,14.00
2012,09,25,17,46,14.00
2012,09,25,17,47,14.10
2012,09,25,17,48,14.00
2012,09,25,17,49,14.00
2012,09,25,17,50,14.00
2012,09,25,17,51,14.00
2012,09,25,17,52,13.90
2012,09,25,17,53,13.90
2012,09,25,17,54,13.90